Year,Month,Day,Hour,Minute,Value (Times are PST for temperature in C)
2006,10,03,00,00,7.40
2006,10,03,00,01,7.40
2006,10,03,00,02,7.40
2006,10,03,00,03,7.40
2006,10,03,00,04,7.40
2006,10,03,00,05,7.40
2006,10,03,00,06,7.40
2006,10,03,00,07,7.30
2006,10,03,00,08,7.30
2006,10,03,00,09,7.30
2006,10,03,00,10,7.30
2006,10,03,00,11,7.30
2006,10,03,00,12,7.30
2006,10,03,00,13,7.30
2006,10,03,00,14,7.30
2006,10,03,00,15,7.30
2006,10,03,00,16,7.30
2006,10,03,00,17,7.30
2006,10,03,00,18,7.30
2006,10,03,00,19,7.30
2006,10,03,00,20,7.30
2006,10,03,00,21,7.30
2006,10,03,00,22,7.30
2006,10,03,00,23,7.30
2006,10,03,00,24,7.30
2006,10,03,00,25,7.30
2006,10,03,00,26,7.30
2006,10,03,00,27,7.30
2006,10,03,00,28,7.30
2006,10,03,00,29,7.30
2006,10,03,00,30,7.40
2006,10,03,00,31,7.40
2006,10,03,00,32,7.40
2006,10,03,00,33,7.40
2006,10,03,00,34,7.40
2006,10,03,00,35,7.40
2006,10,03,00,36,7.40
2006,10,03,00,37,7.50
2006,10,03,00,38,7.50
2006,10,03,00,39,7.50
2006,10,03,00,40,7.50
2006,10,03,00,41,7.50
2006,10,03,00,42,7.50
2006,10,03,00,43,7.50
2006,10,03,00,44,7.50
2006,10,03,00,45,7.50
2006,10,03,00,46,7.50
2006,10,03,00,47,7.50
2006,10,03,00,48,7.50
2006,10,03,00,49,7.50
2006,10,03,00,50,7.50
2006,10,03,00,51,7.50
2006,10,03,00,52,7.50
2006,10,03,00,53,7.50
2006,10,03,00,54,7.50
2006,10,03,00,55,7.50
2006,10,03,00,56,7.50
2006,10,03,00,57,7.50
2006,10,03,00,58,7.50
2006,10,03,00,59,7.50
2006,10,03,01,00,7.50
2006,10,03,01,01,7.50
2006,10,03,01,02,7.50
2006,10,03,01,03,7.50
2006,10,03,01,04,7.50
2006,10,03,01,05,7.60
2006,10,03,01,06,7.60
2006,10,03,01,07,7.60
2006,10,03,01,08,7.60
2006,10,03,01,09,7.60
2006,10,03,01,10,7.60
2006,10,03,01,11,7.60
2006,10,03,01,12,7.60
2006,10,03,01,13,7.60
2006,10,03,01,14,7.60
2006,10,03,01,15,7.60
2006,10,03,01,16,7.50
2006,10,03,01,17,7.50
2006,10,03,01,18,7.50
2006,10,03,01,19,7.50
2006,10,03,01,20,7.50
2006,10,03,01,21,7.50
2006,10,03,01,22,7.50
2006,10,03,01,23,7.50
2006,10,03,01,24,7.50
2006,10,03,01,25,7.50
2006,10,03,01,26,7.50
2006,10,03,01,27,7.50
2006,10,03,01,28,7.50
2006,10,03,01,29,7.50
2006,10,03,01,30,7.50
2006,10,03,01,31,7.50
2006,10,03,01,32,7.50
2006,10,03,01,33,7.50
2006,10,03,01,34,7.50
2006,10,03,01,35,7.50
2006,10,03,01,36,7.50
2006,10,03,01,37,7.50
2006,10,03,01,38,7.50
2006,10,03,01,39,7.40
2006,10,03,01,40,7.40
2006,10,03,01,41,7.40
2006,10,03,01,42,7.40
2006,10,03,01,43,7.30
2006,10,03,01,44,7.30
2006,10,03,01,45,7.30
2006,10,03,01,46,7.30
2006,10,03,01,47,7.30
2006,10,03,01,48,7.30
2006,10,03,01,49,7.30
2006,10,03,01,50,7.30
2006,10,03,01,51,7.30
2006,10,03,01,52,7.30
2006,10,03,01,53,7.30
2006,10,03,01,54,7.30
2006,10,03,01,55,7.30
2006,10,03,01,56,7.30
2006,10,03,01,57,7.30
2006,10,03,01,58,7.30
2006,10,03,01,59,7.30
2006,10,03,02,00,7.30
2006,10,03,02,01,7.30
2006,10,03,02,02,7.30
2006,10,03,02,03,7.30
2006,10,03,02,04,7.30
2006,10,03,02,05,7.30
2006,10,03,02,06,7.30
2006,10,03,02,07,7.30
2006,10,03,02,08,7.30
2006,10,03,02,09,7.30
2006,10,03,02,10,7.30
2006,10,03,02,11,7.30
2006,10,03,02,12,7.30
2006,10,03,02,13,7.30
2006,10,03,02,14,7.20
2006,10,03,02,15,7.20
2006,10,03,02,16,7.10
2006,10,03,02,17,7.10
2006,10,03,02,18,7.10
2006,10,03,02,19,7.10
2006,10,03,02,20,7.10
2006,10,03,02,21,7.10
2006,10,03,02,22,7.00
2006,10,03,02,23,7.00
2006,10,03,02,24,7.00
2006,10,03,02,25,7.00
2006,10,03,02,26,7.00
2006,10,03,02,27,7.00
2006,10,03,02,28,7.00
2006,10,03,02,29,7.00
2006,10,03,02,30,7.00
2006,10,03,02,31,7.00
2006,10,03,02,32,7.00
2006,10,03,02,33,7.00
2006,10,03,02,34,6.90
2006,10,03,02,35,6.90
2006,10,03,02,36,6.90
2006,10,03,02,37,6.80
2006,10,03,02,38,6.80
2006,10,03,02,39,6.80
2006,10,03,02,40,6.90
2006,10,03,02,41,6.90
2006,10,03,02,42,7.00
2006,10,03,02,43,7.00
2006,10,03,02,44,7.10
2006,10,03,02,45,7.10
2006,10,03,02,46,7.10
2006,10,03,02,47,7.10
2006,10,03,02,48,7.10
2006,10,03,02,49,7.10
2006,10,03,02,50,7.20
2006,10,03,02,51,7.20
2006,10,03,02,52,7.20
2006,10,03,02,53,7.20
2006,10,03,02,54,7.20
2006,10,03,02,55,7.10
2006,10,03,02,56,7.10
2006,10,03,02,57,7.10
2006,10,03,02,58,7.10
2006,10,03,02,59,7.00
2006,10,03,03,00,7.00
2006,10,03,03,01,7.00
2006,10,03,03,02,7.00
2006,10,03,03,03,6.90
2006,10,03,03,04,6.90
2006,10,03,03,05,6.90
2006,10,03,03,06,6.80
2006,10,03,03,07,6.80
2006,10,03,03,08,6.80
2006,10,03,03,09,6.80
2006,10,03,03,10,6.80
2006,10,03,03,11,6.80
2006,10,03,03,12,6.80
2006,10,03,03,13,6.70
2006,10,03,03,14,6.70
2006,10,03,03,15,6.70
2006,10,03,03,16,6.70
2006,10,03,03,17,6.70
2006,10,03,03,18,6.70
2006,10,03,03,19,6.70
2006,10,03,03,20,6.70
2006,10,03,03,21,6.70
2006,10,03,03,22,6.70
2006,10,03,03,23,6.70
2006,10,03,03,24,6.70
2006,10,03,03,25,6.70
2006,10,03,03,26,6.70
2006,10,03,03,27,6.70
2006,10,03,03,28,6.70
2006,10,03,03,29,6.70
2006,10,03,03,30,6.70
2006,10,03,03,31,6.70
2006,10,03,03,32,6.70
2006,10,03,03,33,6.70
2006,10,03,03,34,6.70
2006,10,03,03,35,6.70
2006,10,03,03,36,6.70
2006,10,03,03,37,6.70
2006,10,03,03,38,6.70
2006,10,03,03,39,6.80
2006,10,03,03,40,6.80
2006,10,03,03,41,6.80
2006,10,03,03,42,6.80
2006,10,03,03,43,6.80
2006,10,03,03,44,6.80
2006,10,03,03,45,6.80
2006,10,03,03,46,6.70
2006,10,03,03,47,6.70
2006,10,03,03,48,6.70
2006,10,03,03,49,6.70
2006,10,03,03,50,6.70
2006,10,03,03,51,6.70
2006,10,03,03,52,6.70
2006,10,03,03,53,6.70
2006,10,03,03,54,6.70
2006,10,03,03,55,6.70
2006,10,03,03,56,6.70
2006,10,03,03,57,6.70
2006,10,03,03,58,6.70
2006,10,03,03,59,6.70
2006,10,03,04,00,6.70
2006,10,03,04,01,6.60
2006,10,03,04,02,6.60
2006,10,03,04,03,6.60
2006,10,03,04,04,6.60
2006,10,03,04,05,6.60
2006,10,03,04,06,6.60
2006,10,03,04,07,6.60
2006,10,03,04,08,6.60
2006,10,03,04,09,6.50
2006,10,03,04,10,6.40
2006,10,03,04,11,6.40
2006,10,03,04,12,6.40
2006,10,03,04,13,6.40
2006,10,03,04,14,6.40
2006,10,03,04,15,6.40
2006,10,03,04,16,6.50
2006,10,03,04,17,6.60
2006,10,03,04,18,6.60
2006,10,03,04,19,6.60
2006,10,03,04,20,6.60
2006,10,03,04,21,6.60
2006,10,03,04,22,6.60
2006,10,03,04,23,6.60
2006,10,03,04,24,6.60
2006,10,03,04,25,6.60
2006,10,03,04,26,6.60
2006,10,03,04,27,6.60
2006,10,03,04,28,6.60
2006,10,03,04,29,6.60
2006,10,03,04,30,6.60
2006,10,03,04,31,6.60
2006,10,03,04,32,6.60
2006,10,03,04,33,6.60
2006,10,03,04,34,6.60
2006,10,03,04,35,6.60
2006,10,03,04,36,6.60
2006,10,03,04,37,6.60
2006,10,03,04,38,6.60
2006,10,03,04,39,6.50
2006,10,03,04,40,6.40
2006,10,03,04,41,6.40
2006,10,03,04,42,6.40
2006,10,03,04,43,6.40
2006,10,03,04,44,6.40
2006,10,03,04,45,6.40
2006,10,03,04,46,6.40
2006,10,03,04,47,6.40
2006,10,03,04,48,6.40
2006,10,03,04,49,6.40
2006,10,03,04,50,6.40
2006,10,03,04,51,6.40
2006,10,03,04,52,6.40
2006,10,03,04,53,6.40
2006,10,03,04,54,6.40
2006,10,03,04,55,6.40
2006,10,03,04,56,6.40
2006,10,03,04,57,6.40
2006,10,03,04,58,6.40
2006,10,03,04,59,6.40
2006,10,03,05,00,6.40
2006,10,03,05,01,6.40
2006,10,03,05,02,6.40
2006,10,03,05,03,6.40
2006,10,03,05,04,6.40
2006,10,03,05,05,6.40
2006,10,03,05,06,6.40
2006,10,03,05,07,6.40
2006,10,03,05,08,6.40
2006,10,03,05,09,6.40
2006,10,03,05,10,6.40
2006,10,03,05,11,6.40
2006,10,03,05,12,6.40
2006,10,03,05,13,6.40
2006,10,03,05,14,6.40
2006,10,03,05,15,6.40
2006,10,03,05,16,6.40
2006,10,03,05,17,6.40
2006,10,03,05,18,6.40
2006,10,03,05,19,6.40
2006,10,03,05,20,6.40
2006,10,03,05,21,6.40
2006,10,03,05,22,6.40
2006,10,03,05,23,6.40
2006,10,03,05,24,6.40
2006,10,03,05,25,6.40
2006,10,03,05,26,6.40
2006,10,03,05,27,6.40
2006,10,03,05,28,6.40
2006,10,03,05,29,6.40
2006,10,03,05,30,6.40
2006,10,03,05,31,6.40
2006,10,03,05,32,6.40
2006,10,03,05,33,6.40
2006,10,03,05,34,6.40
2006,10,03,05,35,6.40
2006,10,03,05,36,6.40
2006,10,03,05,37,6.40
2006,10,03,05,38,6.40
2006,10,03,05,39,6.40
2006,10,03,05,40,6.40
2006,10,03,05,41,6.40
2006,10,03,05,42,6.40
2006,10,03,05,43,6.40
2006,10,03,05,44,6.40
2006,10,03,05,45,6.40
2006,10,03,05,46,6.40
2006,10,03,05,47,6.40
2006,10,03,05,48,6.40
2006,10,03,05,49,6.40
2006,10,03,05,50,6.40
2006,10,03,05,51,6.40
2006,10,03,05,52,6.40
2006,10,03,05,53,6.40
2006,10,03,05,54,6.40
2006,10,03,05,55,6.40
2006,10,03,05,56,6.30
2006,10,03,05,57,6.30
2006,10,03,05,58,6.30
2006,10,03,05,59,6.30
2006,10,03,06,00,6.30
2006,10,03,06,01,6.20
2006,10,03,06,02,6.20
2006,10,03,06,03,6.20
2006,10,03,06,04,6.20
2006,10,03,06,05,6.20
2006,10,03,06,06,6.20
2006,10,03,06,07,6.20
2006,10,03,06,08,6.20
2006,10,03,06,09,6.20
2006,10,03,06,10,6.20
2006,10,03,06,11,6.20
2006,10,03,06,12,6.10
2006,10,03,06,13,6.10
2006,10,03,06,14,6.10
2006,10,03,06,15,6.10
2006,10,03,06,16,6.10
2006,10,03,06,17,6.10
2006,10,03,06,18,6.00
2006,10,03,06,19,6.00
2006,10,03,06,20,6.00
2006,10,03,06,21,6.00
2006,10,03,06,22,6.00
2006,10,03,06,23,6.00
2006,10,03,06,24,6.00
2006,10,03,06,25,6.00
2006,10,03,06,26,6.00
2006,10,03,06,27,6.10
2006,10,03,06,28,6.10
2006,10,03,06,29,6.10
2006,10,03,06,30,6.10
2006,10,03,06,31,6.10
2006,10,03,06,32,6.10
2006,10,03,06,33,6.10
2006,10,03,06,34,6.10
2006,10,03,06,35,6.10
2006,10,03,06,36,6.10
2006,10,03,06,37,6.10
2006,10,03,06,38,6.10
2006,10,03,06,39,6.10
2006,10,03,06,40,6.10
2006,10,03,06,41,6.10
2006,10,03,06,42,6.10
2006,10,03,06,43,6.10
2006,10,03,06,44,6.10
2006,10,03,06,45,6.10
2006,10,03,06,46,6.10
2006,10,03,06,47,6.10
2006,10,03,06,48,6.10
2006,10,03,06,49,6.20
2006,10,03,06,50,6.20
2006,10,03,06,51,6.20
2006,10,03,06,52,6.20
2006,10,03,06,53,6.20
2006,10,03,06,54,6.20
2006,10,03,06,55,6.20
2006,10,03,06,56,6.20
2006,10,03,06,57,6.20
2006,10,03,06,58,6.20
2006,10,03,06,59,6.20
2006,10,03,07,00,6.20
2006,10,03,07,01,6.10
2006,10,03,07,02,6.10
2006,10,03,07,03,6.10
2006,10,03,07,04,6.10
2006,10,03,07,05,6.10
2006,10,03,07,06,6.00
2006,10,03,07,07,6.00
2006,10,03,07,08,6.00
2006,10,03,07,09,6.00
2006,10,03,07,10,5.90
2006,10,03,07,11,5.90
2006,10,03,07,12,5.90
2006,10,03,07,13,5.90
2006,10,03,07,14,5.90
2006,10,03,07,15,5.90
2006,10,03,07,16,5.90
2006,10,03,07,17,5.90
2006,10,03,07,18,5.90
2006,10,03,07,19,5.90
2006,10,03,07,20,5.90
2006,10,03,07,21,5.90
2006,10,03,07,22,5.90
2006,10,03,07,23,5.90
2006,10,03,07,24,5.80
2006,10,03,07,25,5.80
2006,10,03,07,26,5.80
2006,10,03,07,27,5.70
2006,10,03,07,28,5.70
2006,10,03,07,29,5.70
2006,10,03,07,30,5.70
2006,10,03,07,31,5.70
2006,10,03,07,32,5.70
2006,10,03,07,33,5.70
2006,10,03,07,34,5.80
2006,10,03,07,35,5.80
2006,10,03,07,36,5.90
2006,10,03,07,37,5.90
2006,10,03,07,38,5.90
2006,10,03,07,39,6.00
2006,10,03,07,40,6.00
2006,10,03,07,41,6.00
2006,10,03,07,42,6.00
2006,10,03,07,43,6.10
2006,10,03,07,44,6.10
2006,10,03,07,45,6.10
2006,10,03,07,46,6.10
2006,10,03,07,47,6.10
2006,10,03,07,48,6.10
2006,10,03,07,49,6.10
2006,10,03,07,50,6.10
2006,10,03,07,51,6.10
2006,10,03,07,52,6.20
2006,10,03,07,53,6.20
2006,10,03,07,54,6.20
2006,10,03,07,55,6.20
2006,10,03,07,56,6.20
2006,10,03,07,57,6.20
2006,10,03,07,58,6.20
2006,10,03,07,59,6.20
2006,10,03,08,00,6.20
2006,10,03,08,01,6.20
2006,10,03,08,02,6.20
2006,10,03,08,03,6.20
2006,10,03,08,04,6.20
2006,10,03,08,05,6.20
2006,10,03,08,06,6.20
2006,10,03,08,07,6.20
2006,10,03,08,08,6.20
2006,10,03,08,09,6.20
2006,10,03,08,10,6.20
2006,10,03,08,11,6.20
2006,10,03,08,12,6.20
2006,10,03,08,13,6.10
2006,10,03,08,14,6.10
2006,10,03,08,15,6.10
2006,10,03,08,16,6.20
2006,10,03,08,17,6.20
2006,10,03,08,18,6.20
2006,10,03,08,19,6.20
2006,10,03,08,20,6.20
2006,10,03,08,21,6.20
2006,10,03,08,22,6.20
2006,10,03,08,23,6.20
2006,10,03,08,24,6.20
2006,10,03,08,25,6.20
2006,10,03,08,26,6.20
2006,10,03,08,27,6.20
2006,10,03,08,28,6.20
2006,10,03,08,29,6.20
2006,10,03,08,30,6.20
2006,10,03,08,31,6.20
2006,10,03,08,32,6.20
2006,10,03,08,33,6.20
2006,10,03,08,34,6.20
2006,10,03,08,35,6.20
2006,10,03,08,36,6.20
2006,10,03,08,37,6.20
2006,10,03,08,38,6.20
2006,10,03,08,39,6.30
2006,10,03,08,40,6.30
2006,10,03,08,41,6.30
2006,10,03,08,42,6.40
2006,10,03,08,43,6.40
2006,10,03,08,44,6.40
2006,10,03,08,45,6.40
2006,10,03,08,46,6.40
2006,10,03,08,47,6.40
2006,10,03,08,48,6.60
2006,10,03,08,49,6.60
2006,10,03,08,50,6.60
2006,10,03,08,51,6.60
2006,10,03,08,52,6.60
2006,10,03,08,53,6.70
2006,10,03,08,54,6.80
2006,10,03,08,55,6.80
2006,10,03,08,56,6.90
2006,10,03,08,57,7.00
2006,10,03,08,58,7.10
2006,10,03,08,59,7.20
2006,10,03,09,00,7.30
2006,10,03,09,01,7.30
2006,10,03,09,02,7.30
2006,10,03,09,03,7.40
2006,10,03,09,04,7.50
2006,10,03,09,05,7.60
2006,10,03,09,06,7.60
2006,10,03,09,07,7.70
2006,10,03,09,08,7.80
2006,10,03,09,09,7.80
2006,10,03,09,10,7.80
2006,10,03,09,11,7.90
2006,10,03,09,12,8.00
2006,10,03,09,13,8.10
2006,10,03,09,14,8.20
2006,10,03,09,15,8.20
2006,10,03,09,16,8.30
2006,10,03,09,17,8.40
2006,10,03,09,18,8.40
2006,10,03,09,19,8.50
2006,10,03,09,20,8.60
2006,10,03,09,21,8.70
2006,10,03,09,22,8.70
2006,10,03,09,23,8.80
2006,10,03,09,24,8.90
2006,10,03,09,25,9.00
2006,10,03,09,26,9.10
2006,10,03,09,27,9.20
2006,10,03,09,28,9.30
2006,10,03,09,29,9.40
2006,10,03,09,30,9.50
2006,10,03,09,31,9.70
2006,10,03,09,32,9.80
2006,10,03,09,33,9.90
2006,10,03,09,34,10.10
2006,10,03,09,35,10.20
2006,10,03,09,36,10.30
2006,10,03,09,37,10.40
2006,10,03,09,38,10.50
2006,10,03,09,39,10.60
2006,10,03,09,40,10.60
2006,10,03,09,41,10.70
2006,10,03,09,42,10.80
2006,10,03,09,43,10.90
2006,10,03,09,44,10.90
2006,10,03,09,45,11.00
2006,10,03,09,46,11.10
2006,10,03,09,47,11.10
2006,10,03,09,48,11.20
2006,10,03,09,49,11.30
2006,10,03,09,50,11.30
2006,10,03,09,51,11.30
2006,10,03,09,52,11.30
2006,10,03,09,53,11.40
2006,10,03,09,54,11.40
2006,10,03,09,55,11.40
2006,10,03,09,56,11.30
2006,10,03,09,57,11.30
2006,10,03,09,58,11.30
2006,10,03,09,59,11.30
2006,10,03,10,00,11.40
2006,10,03,10,01,11.40
2006,10,03,10,02,11.40
2006,10,03,10,03,11.50
2006,10,03,10,04,11.60
2006,10,03,10,05,11.60
2006,10,03,10,06,11.60
2006,10,03,10,07,11.60
2006,10,03,10,08,11.60
2006,10,03,10,09,11.60
2006,10,03,10,10,11.60
2006,10,03,10,11,11.60
2006,10,03,10,12,11.60
2006,10,03,10,13,11.60
2006,10,03,10,14,11.60
2006,10,03,10,15,11.60
2006,10,03,10,16,11.70
2006,10,03,10,17,11.70
2006,10,03,10,18,11.80
2006,10,03,10,19,11.70
2006,10,03,10,20,11.70
2006,10,03,10,21,11.70
2006,10,03,10,22,11.70
2006,10,03,10,23,11.70
2006,10,03,10,24,11.70
2006,10,03,10,25,11.70
2006,10,03,10,26,11.70
2006,10,03,10,27,11.80
2006,10,03,10,28,11.80
2006,10,03,10,29,11.80
2006,10,03,10,30,11.80
2006,10,03,10,31,11.80
2006,10,03,10,32,11.80
2006,10,03,10,33,11.80
2006,10,03,10,34,11.80
2006,10,03,10,35,11.80
2006,10,03,10,36,11.80
2006,10,03,10,37,11.80
2006,10,03,10,38,11.80
2006,10,03,10,39,11.80
2006,10,03,10,40,11.80
2006,10,03,10,41,11.70
2006,10,03,10,42,11.70
2006,10,03,10,43,11.60
2006,10,03,10,44,11.60
2006,10,03,10,45,11.60
2006,10,03,10,46,11.60
2006,10,03,10,47,11.60
2006,10,03,10,48,11.60
2006,10,03,10,49,11.70
2006,10,03,10,50,11.70
2006,10,03,10,51,11.70
2006,10,03,10,52,11.70
2006,10,03,10,53,11.80
2006,10,03,10,54,11.80
2006,10,03,10,55,11.80
2006,10,03,10,56,11.80
2006,10,03,10,57,11.80
2006,10,03,10,58,11.90
2006,10,03,10,59,11.90
2006,10,03,11,00,12.00
2006,10,03,11,01,12.10
2006,10,03,11,02,12.10
2006,10,03,11,03,12.10
2006,10,03,11,04,12.20
2006,10,03,11,05,12.20
2006,10,03,11,06,12.30
2006,10,03,11,07,12.30
2006,10,03,11,08,12.30
2006,10,03,11,09,12.30
2006,10,03,11,10,12.30
2006,10,03,11,11,12.30
2006,10,03,11,12,12.30
2006,10,03,11,13,12.30
2006,10,03,11,14,12.30
2006,10,03,11,15,12.30
2006,10,03,11,16,12.30
2006,10,03,11,17,12.30
2006,10,03,11,18,12.40
2006,10,03,11,19,12.50
2006,10,03,11,20,12.50
2006,10,03,11,21,12.50
2006,10,03,11,22,12.60
2006,10,03,11,23,12.60
2006,10,03,11,24,12.60
2006,10,03,11,25,12.70
2006,10,03,11,26,12.70
2006,10,03,11,27,12.70
2006,10,03,11,28,12.70
2006,10,03,11,29,12.70
2006,10,03,11,30,12.60
2006,10,03,11,31,12.60
2006,10,03,11,32,12.60
2006,10,03,11,33,12.60
2006,10,03,11,34,12.70
2006,10,03,11,35,12.70
2006,10,03,11,36,12.70
2006,10,03,11,37,12.70
2006,10,03,11,38,12.70
2006,10,03,11,39,12.70
2006,10,03,11,40,12.60
2006,10,03,11,41,12.60
2006,10,03,11,42,12.60
2006,10,03,11,43,12.70
2006,10,03,11,44,12.70
2006,10,03,11,45,12.70
2006,10,03,11,46,12.80
2006,10,03,11,47,12.80
2006,10,03,11,48,12.90
2006,10,03,11,49,12.90
2006,10,03,11,50,13.00
2006,10,03,11,51,13.00
2006,10,03,11,52,13.00
2006,10,03,11,53,12.90
2006,10,03,11,54,12.90
2006,10,03,11,55,13.00
2006,10,03,11,56,13.00
2006,10,03,11,57,13.10
2006,10,03,11,58,13.10
2006,10,03,11,59,13.20
2006,10,03,12,00,13.30
2006,10,03,12,01,13.30
2006,10,03,12,02,13.30
2006,10,03,12,03,13.30
2006,10,03,12,04,13.30
2006,10,03,12,05,13.30
2006,10,03,12,06,13.30
2006,10,03,12,07,13.30
2006,10,03,12,08,13.30
2006,10,03,12,09,13.20
2006,10,03,12,10,13.20
2006,10,03,12,11,13.30
2006,10,03,12,12,13.30
2006,10,03,12,13,13.50
2006,10,03,12,14,13.60
2006,10,03,12,15,13.60
2006,10,03,12,16,13.60
2006,10,03,12,17,13.60
2006,10,03,12,18,13.70
2006,10,03,12,19,13.70
2006,10,03,12,20,13.70
2006,10,03,12,21,13.70
2006,10,03,12,22,13.80
2006,10,03,12,23,13.80
2006,10,03,12,24,13.80
2006,10,03,12,25,13.90
2006,10,03,12,26,13.80
2006,10,03,12,27,13.90
2006,10,03,12,28,14.00
2006,10,03,12,29,14.00
2006,10,03,12,30,14.00
2006,10,03,12,31,14.00
2006,10,03,12,32,14.00
2006,10,03,12,33,13.90
2006,10,03,12,34,13.90
2006,10,03,12,35,13.90
2006,10,03,12,36,14.00
2006,10,03,12,37,14.00
2006,10,03,12,38,14.10
2006,10,03,12,39,14.00
2006,10,03,12,40,13.90
2006,10,03,12,41,13.80
2006,10,03,12,42,13.70
2006,10,03,12,43,13.70
2006,10,03,12,44,13.60
2006,10,03,12,45,13.60
2006,10,03,12,46,13.60
2006,10,03,12,47,13.60
2006,10,03,12,48,13.60
2006,10,03,12,49,13.50
2006,10,03,12,50,13.40
2006,10,03,12,51,13.40
2006,10,03,12,52,13.30
2006,10,03,12,53,13.30
2006,10,03,12,54,13.40
2006,10,03,12,55,13.30
2006,10,03,12,56,13.40
2006,10,03,12,57,13.50
2006,10,03,12,58,13.50
2006,10,03,12,59,13.60
2006,10,03,13,00,13.60
2006,10,03,13,01,13.70
2006,10,03,13,02,13.70
2006,10,03,13,03,13.70
2006,10,03,13,04,13.70
2006,10,03,13,05,13.60
2006,10,03,13,06,13.60
2006,10,03,13,07,13.50
2006,10,03,13,08,13.50
2006,10,03,13,09,13.50
2006,10,03,13,10,13.50
2006,10,03,13,11,13.50
2006,10,03,13,12,13.50
2006,10,03,13,13,13.50
2006,10,03,13,14,13.50
2006,10,03,13,15,13.50
2006,10,03,13,16,13.30
2006,10,03,13,17,13.30
2006,10,03,13,18,13.30
2006,10,03,13,19,13.30
2006,10,03,13,20,13.20
2006,10,03,13,21,13.20
2006,10,03,13,22,13.20
2006,10,03,13,23,13.10
2006,10,03,13,24,13.10
2006,10,03,13,25,13.10
2006,10,03,13,26,13.20
2006,10,03,13,27,13.20
2006,10,03,13,28,13.30
2006,10,03,13,29,13.30
2006,10,03,13,30,13.30
2006,10,03,13,31,13.30
2006,10,03,13,32,13.30
2006,10,03,13,33,13.30
2006,10,03,13,34,13.30
2006,10,03,13,35,13.30
2006,10,03,13,36,13.30
2006,10,03,13,37,13.30
2006,10,03,13,38,13.20
2006,10,03,13,39,13.20
2006,10,03,13,40,13.20
2006,10,03,13,41,13.20
2006,10,03,13,42,13.30
2006,10,03,13,43,13.20
2006,10,03,13,44,13.20
2006,10,03,13,45,13.30
2006,10,03,13,46,13.30
2006,10,03,13,47,13.20
2006,10,03,13,48,13.20
2006,10,03,13,49,13.20
2006,10,03,13,50,13.20
2006,10,03,13,51,13.10
2006,10,03,13,52,13.10
2006,10,03,13,53,13.20
2006,10,03,13,54,13.20
2006,10,03,13,55,13.10
2006,10,03,13,56,13.10
2006,10,03,13,57,13.10
2006,10,03,13,58,13.10
2006,10,03,13,59,13.10
2006,10,03,14,00,13.10
2006,10,03,14,01,13.10
2006,10,03,14,02,13.20
2006,10,03,14,03,13.20
2006,10,03,14,04,13.30
2006,10,03,14,05,13.30
2006,10,03,14,06,13.30
2006,10,03,14,07,13.30
2006,10,03,14,08,13.30
2006,10,03,14,09,13.40
2006,10,03,14,10,13.50
2006,10,03,14,11,13.50
2006,10,03,14,12,13.60
2006,10,03,14,13,13.60
2006,10,03,14,14,13.70
2006,10,03,14,15,13.70
2006,10,03,14,16,13.70
2006,10,03,14,17,13.70
2006,10,03,14,18,13.80
2006,10,03,14,19,13.90
2006,10,03,14,20,13.90
2006,10,03,14,21,14.00
2006,10,03,14,22,14.00
2006,10,03,14,23,13.90
2006,10,03,14,24,13.90
2006,10,03,14,25,13.80
2006,10,03,14,26,13.80
2006,10,03,14,27,13.70
2006,10,03,14,28,13.80
2006,10,03,14,29,13.80
2006,10,03,14,30,13.80
2006,10,03,14,31,13.80
2006,10,03,14,32,13.90
2006,10,03,14,33,14.00
2006,10,03,14,34,14.00
2006,10,03,14,35,14.10
2006,10,03,14,36,14.20
2006,10,03,14,37,14.20
2006,10,03,14,38,14.20
2006,10,03,14,39,14.20
2006,10,03,14,40,14.20
2006,10,03,14,41,14.20
2006,10,03,14,42,14.20
2006,10,03,14,43,14.20
2006,10,03,14,44,14.20
2006,10,03,14,45,14.20
2006,10,03,14,46,14.20
2006,10,03,14,47,14.20
2006,10,03,14,48,14.20
2006,10,03,14,49,14.20
2006,10,03,14,50,14.30
2006,10,03,14,51,14.30
2006,10,03,14,52,14.30
2006,10,03,14,53,14.30
2006,10,03,14,54,14.40
2006,10,03,14,55,14.40
2006,10,03,14,56,14.40
2006,10,03,14,57,14.40
2006,10,03,14,58,14.30
2006,10,03,14,59,14.20
2006,10,03,15,00,14.20
2006,10,03,15,01,14.20
2006,10,03,15,02,14.10
2006,10,03,15,03,14.10
2006,10,03,15,04,14.10
2006,10,03,15,05,14.10
2006,10,03,15,06,14.10
2006,10,03,15,07,14.10
2006,10,03,15,08,14.00
2006,10,03,15,09,14.00
2006,10,03,15,10,14.00
2006,10,03,15,11,14.00
2006,10,03,15,12,14.00
2006,10,03,15,13,14.10
2006,10,03,15,14,14.00
2006,10,03,15,15,14.00
2006,10,03,15,16,14.00
2006,10,03,15,17,14.00
2006,10,03,15,18,14.00
2006,10,03,15,19,14.00
2006,10,03,15,20,14.00
2006,10,03,15,21,14.00
2006,10,03,15,22,14.00
2006,10,03,15,23,14.00
2006,10,03,15,24,14.00
2006,10,03,15,25,14.00
2006,10,03,15,26,14.10
2006,10,03,15,27,14.10
2006,10,03,15,28,14.10
2006,10,03,15,29,14.20
2006,10,03,15,30,14.20
2006,10,03,15,31,14.30
2006,10,03,15,32,14.30
2006,10,03,15,33,14.30
2006,10,03,15,34,14.40
2006,10,03,15,35,14.40
2006,10,03,15,36,14.40
2006,10,03,15,37,14.40
2006,10,03,15,38,14.40
2006,10,03,15,39,14.30
2006,10,03,15,40,14.20
2006,10,03,15,41,14.30
2006,10,03,15,42,14.30
2006,10,03,15,43,14.20
2006,10,03,15,44,14.30
2006,10,03,15,45,14.30
2006,10,03,15,46,14.20
2006,10,03,15,47,14.30
2006,10,03,15,48,14.40
2006,10,03,15,49,14.40
2006,10,03,15,50,14.40
2006,10,03,15,51,14.50
2006,10,03,15,52,14.50
2006,10,03,15,53,14.50
2006,10,03,15,54,14.50
2006,10,03,15,55,14.50
2006,10,03,15,56,14.50
2006,10,03,15,57,14.50
2006,10,03,15,58,14.50
2006,10,03,15,59,14.60
2006,10,03,16,00,14.60
2006,10,03,16,01,14.60
2006,10,03,16,02,14.60
2006,10,03,16,03,14.70
2006,10,03,16,04,14.70
2006,10,03,16,05,14.80
2006,10,03,16,06,14.80
2006,10,03,16,07,14.80
2006,10,03,16,08,14.80
2006,10,03,16,09,14.80
2006,10,03,16,10,14.80
2006,10,03,16,11,14.80
2006,10,03,16,12,14.80
2006,10,03,16,13,14.80
2006,10,03,16,14,14.80
2006,10,03,16,15,14.70
2006,10,03,16,16,14.70
2006,10,03,16,17,14.70
2006,10,03,16,18,14.60
2006,10,03,16,19,14.60
2006,10,03,16,20,14.60
2006,10,03,16,21,14.60
2006,10,03,16,22,14.60
2006,10,03,16,23,14.60
2006,10,03,16,24,14.70
2006,10,03,16,25,14.70
2006,10,03,16,26,14.70
2006,10,03,16,27,14.60
2006,10,03,16,28,14.60
2006,10,03,16,29,14.60
2006,10,03,16,30,14.60
2006,10,03,16,31,14.60
2006,10,03,16,32,14.60
2006,10,03,16,33,14.70
2006,10,03,16,34,14.70
2006,10,03,16,35,14.70
2006,10,03,16,36,14.70
2006,10,03,16,37,14.80
2006,10,03,16,38,14.80
2006,10,03,16,39,14.80
2006,10,03,16,40,14.80
2006,10,03,16,41,14.80
2006,10,03,16,42,14.80
2006,10,03,16,43,14.80
2006,10,03,16,44,14.80
2006,10,03,16,45,14.80
2006,10,03,16,46,14.80
2006,10,03,16,47,14.70
2006,10,03,16,48,14.70
2006,10,03,16,49,14.70
2006,10,03,16,50,14.70
2006,10,03,16,51,14.70
2006,10,03,16,52,14.70
2006,10,03,16,53,14.70
2006,10,03,16,54,14.60
2006,10,03,16,55,14.60
2006,10,03,16,56,14.50
2006,10,03,16,57,14.50
2006,10,03,16,58,14.40
2006,10,03,16,59,14.40
2006,10,03,17,00,14.40
2006,10,03,17,01,14.40
2006,10,03,17,02,14.40
2006,10,03,17,03,14.30
2006,10,03,17,04,14.30
2006,10,03,17,05,14.40
2006,10,03,17,06,14.40
2006,10,03,17,07,14.40
2006,10,03,17,08,14.40
2006,10,03,17,09,14.40
2006,10,03,17,10,14.40
2006,10,03,17,11,14.40
2006,10,03,17,12,14.40
2006,10,03,17,13,14.40
2006,10,03,17,14,14.40
2006,10,03,17,15,14.40
2006,10,03,17,16,14.40
2006,10,03,17,17,14.40
2006,10,03,17,18,14.30
2006,10,03,17,19,14.30
2006,10,03,17,20,14.20
2006,10,03,17,21,14.20
2006,10,03,17,22,14.20
2006,10,03,17,23,14.20
2006,10,03,17,24,14.20
2006,10,03,17,25,14.20
2006,10,03,17,26,14.20
2006,10,03,17,27,14.20
2006,10,03,17,28,14.20
2006,10,03,17,29,14.10
2006,10,03,17,30,14.10
2006,10,03,17,31,14.10
2006,10,03,17,32,14.20
2006,10,03,17,33,14.20
2006,10,03,17,34,14.20
2006,10,03,17,35,14.20
2006,10,03,17,36,14.20
2006,10,03,17,37,14.20
2006,10,03,17,38,14.20
2006,10,03,17,39,14.20
2006,10,03,17,40,14.20
2006,10,03,17,41,14.20
2006,10,03,17,42,14.20
2006,10,03,17,43,14.20
2006,10,03,17,44,14.20